sat.trackr.live / text

‹ back to catalog

STARLINK-33943

NORAD 63884 · 2025-094W

PAYLOAD ACTIVE UNKNOWN

§ Identity

Operator
Country
US
Launch date
2025-05-10
Launch site
AFWTR
Launch vehicle
Mass (kg)
RCS (m²)

Purposes: comms

External: N2YO · Heavens-Above · Gunter

§ Orbital elements

Epoch: 2026-05-25T02:28:49.255104Z

Period
96.11 min
Inclination
70.0022°
Eccentricity
0.0002780
Mean motion
14.98333229 rev/d
Perigee alt
570.1 km
Apogee alt
574.0 km
Semi-major
6,950.2 km
B*
1.8475e-4
RAAN
41.6149°
Arg perigee
268.2968°
Mean anomaly
91.7872°
Rev number
5,865

§ Raw data

STARLINK-339431 63884U 25094W   26145.10334786  .00002112  00000+0  18475-3 0  99922 63884  70.0022  41.6149 0002780 268.2968  91.7872 14.98333229 58657

JSON: /api/v1/satellites/63884 · /tle

For live sub-satellite position, see the globe view (requires WebGL).

§ Visibility from observer

Set your observer location to see the next 7 days of passes ≥ 10°. The values pass through the URL so the page stays shareable.

No JS? Fill the form by hand. The geolocation button needs JavaScript.